Location: C�an Torras
(41.5052°N, 1.9280°E)
Time: 21:25:16
(UTC+00:00)

COSMO-SKYMED 1 - Pass Details

Date: 20 January 2021
Orbit: 621 x 623 km, 97.9° (Epoch: 03 March)

Event Time Altitude Azimuth Distance (km) Brightness Sun altitude
Rises 17:57:19 0° 13° (NNE) 2,913 5.7 -12.0°
Reaches altitude 10° 17:59:31 10° 14° (NNE) 2,002 4.9 -12.4°
Maximum altitude 18:03:53 86° 104° (ESE) 630 2.5 -13.1°
Drops below altitude 10° 18:08:13 10° 192° (SSW) 1,985 5.5 -13.9°
Sets 18:10:23 0° 193° (SSW) 2,886 6.4 -14.3°
